Location: City of Moscow
(46.7306°N, 116.9989°W)
Time: 03:02:17
(UTC+00:00)

USA 234 - Pass Details

Date: 14 March 2026
Orbit: 1102 x 1106 km, 123.0° (Epoch: 4 January)

Event Time Altitude Azimuth Distance (km) Brightness Sun altitude
Exits shadow 02:43:33 - 71° (ENE) 3,131 5.1 -9.8°
Reaches altitude 10° 02:44:01 10° 69° (ENE) 2,966 5.0 -9.9°
Maximum altitude 02:49:53 37° 5° (N) 1,657 4.2 -10.9°
Drops below altitude 10° 02:55:45 10° 301° (WNW) 2,970 6.7 -11.8°
Sets 02:58:25 0° 294° (WNW) 3,929 7.9 -12.3°
